,,,PA_Meas_PMT16A,,PR_Meas_QMR101_102,,RH_Meas_QMH101,,SR_Meas_QMS101,,TA_Meas_QMH101,,GenWind,,GenWind,
date,time,status,PA,status,PR,status,RH,status,SR,status,TA,status,DirAvg,status,SpdAvg,
2010-06-02, 00:00:04,VALID,1001.12,VALID,0,VALID,92.9822,VALID,0,VALID,23.6427,VALID,88,VALID,0.457031,
2010-06-02, 00:01:04,VALID,1001.08,VALID,0,VALID,92.8983,VALID,0,VALID,23.6427,VALID,88,VALID,0.363672,
2010-06-02, 00:02:04,VALID,1001.04,VALID,0,VALID,92.8067,VALID,0,VALID,23.6445,VALID,88,VALID,0.152734,
2010-06-02, 00:03:04,VALID,1001.06,VALID,0,VALID,92.7075,VALID,0.112286,VALID,23.6019,VALID,88,VALID,0,
2010-06-02, 00:04:04,VALID,1001.02,VALID,0,VALID,92.6083,VALID,0,VALID,23.5841,VALID,88,VALID,0,
2010-06-02, 00:05:04,VALID,1001.02,VALID,0,VALID,92.677,VALID,0,VALID,23.5433,VALID,88,VALID,0,
2010-06-02, 00:06:04,VALID,1001.05,VALID,0,VALID,92.8448,VALID,0.112286,VALID,23.5433,VALID,88,VALID,0,
2010-06-02, 00:07:04,VALID,1001.04,VALID,0,VALID,92.9593,VALID,0.112286,VALID,23.5433,VALID,88,VALID,0,
2010-06-02, 00:08:04,VALID,1001.06,VALID,0,VALID,93.0356,VALID,0,VALID,23.5433,VALID,88,VALID,0,
2010-06-02, 00:09:04,VALID,1001.07,VALID,0,VALID,93.1271,VALID,0,VALID,23.5433,VALID,88,VALID,0,
2010-06-02, 00:10:04,VALID,1001.06,VALID,0,VALID,93.2111,VALID,0,VALID,23.5628,VALID,88,VALID,0,
2010-06-02, 00:11:04,VALID,1001.04,VALID,0,VALID,93.2645,VALID,0.112286,VALID,23.6036,VALID,88,VALID,0,
2010-06-02, 00:12:04,VALID,1001.02,VALID,0,VALID,93.3103,VALID,0.112286,VALID,23.5823,VALID,88,VALID,0,
2010-06-02, 00:13:04,VALID,1001.02,VALID,0,VALID,93.3255,VALID,0,VALID,23.5823,VALID,88,VALID,0,
2010-06-02, 00:14:04,VALID,1001.02,VALID,0,VALID,93.3103,VALID,0,VALID,23.5823,VALID,88,VALID,0.283203,
2010-06-02, 00:15:04,VALID,1001.04,VALID,0,VALID,93.3026,VALID,0,VALID,23.5823,VALID,88,VALID,0.320703,
2010-06-02, 00:16:04,VALID,1001.04,VALID,0,VALID,93.2874,VALID,0.112286,VALID,23.5628,VALID,88,VALID,0.326562,
2010-06-02, 00:17:04,VALID,1001.06,VALID,0,VALID,93.2645,VALID,0,VALID,23.5415,VALID,88,VALID,0.353906,
2010-06-02, 00:18:04,VALID,1001.05,VALID,0,VALID,93.295,VALID,0,VALID,23.5451,VALID,88,VALID,0.254297,
2010-06-02, 00:19:04,VALID,1001.03,VALID,0,VALID,93.3103,VALID,0,VALID,23.5646,VALID,88,VALID,0.158984,
2010-06-02, 00:20:04,VALID,1001.02,VALID,0,VALID,93.3408,VALID,0,VALID,23.5451,VALID,88,VALID,0,
2010-06-02, 00:21:04,VALID,1001.01,VALID,0,VALID,93.3255,VALID,0,VALID,23.4866,VALID,88,VALID,0,
2010-06-02, 00:22:04,VALID,1001.01,VALID,0,VALID,93.295,VALID,0,VALID,23.4671,VALID,88,VALID,0,
2010-06-02, 00:23:04,VALID,1001.01,VALID,0,VALID,93.2111,VALID,0,VALID,23.428,VALID,88,VALID,0,
2010-06-02, 00:24:04,VALID,1000.96,VALID,0,VALID,93.2416,VALID,0,VALID,23.389,VALID,88,VALID,0.357422,
2010-06-02, 00:25:04,VALID,1000.93,VALID,0,VALID,93.3637,VALID,0,VALID,23.4085,VALID,88,VALID,0.420703,
2010-06-02, 00:26:04,VALID,1000.99,VALID,0,VALID,93.4323,VALID,0,VALID,23.428,VALID,88,VALID,0.653906,
2010-06-02, 00:27:04,VALID,1000.96,VALID,0,VALID,93.4781,VALID,0,VALID,23.4085,VALID,88,VALID,0.783203,
2010-06-02, 00:28:04,VALID,1000.94,VALID,0,VALID,93.4857,VALID,0,VALID,23.4085,VALID,88,VALID,0.874609,
2010-06-02, 00:29:04,VALID,1000.94,VALID,0,VALID,93.4934,VALID,0,VALID,23.4085,VALID,88,VALID,0.800391,
2010-06-02, 00:30:04,VALID,1000.94,VALID,0,VALID,93.4552,VALID,0,VALID,23.4085,VALID,88,VALID,0.726172,
2010-06-02, 00:31:04,VALID,1000.9,VALID,0,VALID,93.44,VALID,0,VALID,23.389,VALID,88,VALID,0.635938,
2010-06-02, 00:32:04,VALID,1000.89,VALID,0,VALID,93.4247,VALID,0,VALID,23.389,VALID,88,VALID,0.554688,
2010-06-02, 00:33:04,VALID,1000.85,VALID,0,VALID,93.4247,VALID,0,VALID,23.4085,VALID,88,VALID,0.611719,
2010-06-02, 00:34:04,VALID,1000.83,VALID,0,VALID,93.4323,VALID,0,VALID,23.4085,VALID,88,VALID,0.584766,
2010-06-02, 00:35:04,VALID,1000.81,VALID,0,VALID,93.4705,VALID,0,VALID,23.4475,VALID,88,VALID,0.558203,
2010-06-02, 00:36:04,VALID,1000.8,VALID,0,VALID,93.5239,VALID,0,VALID,23.4866,VALID,88,VALID,0.550391,
2010-06-02, 00:37:04,VALID,1000.78,VALID,0,VALID,93.5315,VALID,0,VALID,23.5451,VALID,88,VALID,0.698438,
2010-06-02, 00:38:04,VALID,1000.77,VALID,0,VALID,93.5773,VALID,0,VALID,23.5451,VALID,88,VALID,0.690234,
2010-06-02, 00:39:04,VALID,1000.73,VALID,0,VALID,93.5773,VALID,0,VALID,23.5646,VALID,88,VALID,0.582422,
2010-06-02, 00:40:04,VALID,1000.71,VALID,0,VALID,93.562,VALID,0,VALID,23.5841,VALID,88,VALID,0.500781,
2010-06-02, 00:41:04,VALID,1000.7,VALID,0,VALID,93.5086,VALID,0,VALID,23.5841,VALID,88,VALID,0.557813,
2010-06-02, 00:42:04,VALID,1000.69,VALID,0,VALID,93.44,VALID,0,VALID,23.5433,VALID,88,VALID,0.357031,
2010-06-02, 00:43:04,VALID,1000.71,VALID,0,VALID,93.3713,VALID,0,VALID,23.5451,VALID,88,VALID,0.359766,
2010-06-02, 00:44:04,VALID,1000.7,VALID,0,VALID,93.295,VALID,0,VALID,23.5256,VALID,88,VALID,0,
2010-06-02, 00:45:04,VALID,1000.71,VALID,0,VALID,93.2263,VALID,0,VALID,23.5061,VALID,88,VALID,0,
2010-06-02, 00:46:04,VALID,1000.69,VALID,0,VALID,93.234,VALID,0,VALID,23.5256,VALID,88,VALID,0,
2010-06-02, 00:47:04,VALID,1000.67,VALID,0,VALID,93.2263,VALID,0,VALID,23.5256,VALID,88,VALID,0,
2010-06-02, 00:48:04,VALID,1000.65,VALID,0,VALID,93.2111,VALID,0,VALID,23.5256,VALID,88,VALID,0,
2010-06-02, 00:49:04,VALID,1000.68,VALID,0,VALID,93.0966,VALID,0,VALID,23.5079,VALID,88,VALID,0,
2010-06-02, 00:50:04,VALID,1000.61,VALID,0,VALID,93.1577,VALID,0,VALID,23.5079,VALID,88,VALID,0,
2010-06-02, 00:51:04,VALID,1000.61,VALID,0,VALID,93.2034,VALID,0,VALID,23.5061,VALID,88,VALID,0,
2010-06-02, 00:52:04,VALID,1000.63,VALID,0,VALID,93.295,VALID,0,VALID,23.5256,VALID,88,VALID,0,
2010-06-02, 00:53:04,VALID,1000.63,VALID,0,VALID,93.3179,VALID,0,VALID,23.5256,VALID,88,VALID,0,
2010-06-02, 00:54:04,VALID,1000.64,VALID,0,VALID,93.3179,VALID,0,VALID,23.5451,VALID,92,VALID,0,
2010-06-02, 00:55:04,VALID,1000.64,VALID,0,VALID,93.2645,VALID,0,VALID,23.5256,VALID,101,VALID,0.335547,
2010-06-02, 00:56:04,VALID,1000.63,VALID,0,VALID,93.1577,VALID,0,VALID,23.5061,VALID,101,VALID,0.673047,
2010-06-02, 00:57:04,VALID,1000.62,VALID,0,VALID,93.0432,VALID,0,VALID,23.4653,VALID,101,VALID,0.746094,
2010-06-02, 00:58:04,VALID,1000.56,VALID,0,VALID,93.0661,VALID,0,VALID,23.4671,VALID,101,VALID,0.685156,
2010-06-02, 00:59:04,VALID,1000.57,VALID,0,VALID,93.0508,VALID,0,VALID,23.4475,VALID,96,VALID,0.601953,
2010-06-02, 01:00:04,VALID,1000.51,VALID,0,VALID,92.9898,VALID,0,VALID,23.4085,VALID,95,VALID,0.351953,
2010-06-02, 01:01:04,VALID,1000.5,VALID,0,VALID,92.9745,VALID,0,VALID,23.4085,VALID,95,VALID,0.258594,
2010-06-02, 01:02:04,VALID,1000.49,VALID,0,VALID,92.8525,VALID,0,VALID,23.3695,VALID,95,VALID,0.392188,
2010-06-02, 01:03:04,VALID,1000.49,VALID,0,VALID,92.9898,VALID,0,VALID,23.35,VALID,95,VALID,0.465234,
2010-06-02, 01:04:04,VALID,1000.49,VALID,0,VALID,93.0737,VALID,0,VALID,23.3695,VALID,62,VALID,0.421875,
2010-06-02, 01:05:04,VALID,1000.51,VALID,0,VALID,93.0966,VALID,0,VALID,23.35,VALID,62,VALID,0.364844,
2010-06-02, 01:06:04,VALID,1000.53,VALID,0,VALID,93.1424,VALID,0,VALID,23.35,VALID,62,VALID,0.275,
2010-06-02, 01:07:04,VALID,1000.54,VALID,0,VALID,93.15,VALID,0,VALID,23.3305,VALID,62,VALID,0.147266,
2010-06-02, 01:08:04,VALID,1000.53,VALID,0,VALID,93.0814,VALID,0,VALID,23.2915,VALID,62,VALID,0,
2010-06-02, 01:09:04,VALID,1000.53,VALID,0,VALID,93.0508,VALID,0,VALID,23.2719,VALID,62,VALID,0,
2010-06-02, 01:10:04,VALID,1000.5,VALID,0,VALID,93.0814,VALID,0,VALID,23.2719,VALID,62,VALID,0,
2010-06-02, 01:11:04,VALID,1000.48,VALID,0,VALID,93.089,VALID,0,VALID,23.2329,VALID,62,VALID,0,
2010-06-02, 01:12:04,VALID,1000.45,VALID,0,VALID,93.1577,VALID,0,VALID,23.2329,VALID,62,VALID,0,
2010-06-02, 01:13:04,VALID,1000.43,VALID,0,VALID,93.1424,VALID,0,VALID,23.2134,VALID,62,VALID,0,
2010-06-02, 01:14:04,VALID,1000.42,VALID,0,VALID,93.2034,VALID,0,VALID,23.2329,VALID,61,VALID,0.212109,
2010-06-02, 01:15:04,VALID,1000.39,VALID,0,VALID,93.2645,VALID,0,VALID,23.2329,VALID,61,VALID,0.614062,
2010-06-02, 01:16:04,VALID,1000.36,VALID,0,VALID,93.295,VALID,0,VALID,23.2329,VALID,61,VALID,0.527344,
2010-06-02, 01:17:04,VALID,1000.33,VALID,0,VALID,93.1195,VALID,0,VALID,23.1744,VALID,61,VALID,0.460547,
2010-06-02, 01:18:04,VALID,1000.28,VALID,0,VALID,93.0508,VALID,0,VALID,23.1549,VALID,61,VALID,0.403516,
2010-06-02, 01:19:04,VALID,1000.29,VALID,0,VALID,92.9593,VALID,0,VALID,23.1549,VALID,61,VALID,0.342578,
2010-06-02, 01:20:04,VALID,1000.23,VALID,0,VALID,92.8448,VALID,0,VALID,23.1176,VALID,61,VALID,0.178125,
2010-06-02, 01:21:04,VALID,1000.2,VALID,0,VALID,92.7304,VALID,0,VALID,23.0378,VALID,61,VALID,0.116797,
2010-06-02, 01:22:04,VALID,1000.17,VALID,0,VALID,92.8677,VALID,0,VALID,23.0573,VALID,61,VALID,0.327734,
2010-06-02, 01:23:04,VALID,1000.15,VALID,0,VALID,92.9822,VALID,0,VALID,23.0378,VALID,61,VALID,0.453125,
2010-06-02, 01:24:04,VALID,1000.13,VALID,0,VALID,93.2034,VALID,0,VALID,23.0769,VALID,61,VALID,0.798437,
2010-06-02, 01:25:04,VALID,1000.1,VALID,0,VALID,93.3331,VALID,0,VALID,23.1354,VALID,55,VALID,0.86875,
2010-06-02, 01:26:04,VALID,1000.12,VALID,0,VALID,93.4476,VALID,0,VALID,23.1957,VALID,55,VALID,0.913672,
2010-06-02, 01:27:04,VALID,1000.13,VALID,0,VALID,93.4552,VALID,0,VALID,23.2329,VALID,55,VALID,0.924609,
2010-06-02, 01:28:04,VALID,1000.15,VALID,0,VALID,93.3789,VALID,0,VALID,23.1939,VALID,55,VALID,0.897266,
2010-06-02, 01:29:04,VALID,1000.16,VALID,0,VALID,93.2111,VALID,0,VALID,23.1939,VALID,55,VALID,0.905078,
2010-06-02, 01:30:04,VALID,1000.15,VALID,0,VALID,93.0585,VALID,0,VALID,23.1939,VALID,55,VALID,0.798437,
2010-06-02, 01:31:04,VALID,1000.17,VALID,0,VALID,92.9059,VALID,0,VALID,23.1939,VALID,55,VALID,0.612891,
2010-06-02, 01:32:04,VALID,1000.18,VALID,0,VALID,92.7685,VALID,0,VALID,23.1744,VALID,55,VALID,0.0851562,
2010-06-02, 01:33:04,VALID,1000.16,VALID,0,VALID,92.5931,VALID,0,VALID,23.1354,VALID,57,VALID,0.314844,
2010-06-02, 01:34:04,VALID,1000.18,VALID,0,VALID,92.6312,VALID,0,VALID,23.1354,VALID,64,VALID,0.302734,
2010-06-02, 01:35:04,VALID,1000.12,VALID,0,VALID,92.7914,VALID,0,VALID,23.1744,VALID,64,VALID,0.245703,
2010-06-02, 01:36:04,VALID,1000.14,VALID,0,VALID,92.9745,VALID,0,VALID,23.1939,VALID,64,VALID,0.349219,
2010-06-02, 01:37:04,VALID,1000.13,VALID,0,VALID,93.1424,VALID,0,VALID,23.2329,VALID,64,VALID,0.517187,
2010-06-02, 01:38:04,VALID,1000.14,VALID,0,VALID,93.2568,VALID,0,VALID,23.2915,VALID,64,VALID,0.536328,
2010-06-02, 01:39:04,VALID,1000.15,VALID,0,VALID,93.3026,VALID,0,VALID,23.3305,VALID,64,VALID,0.578906,
2010-06-02, 01:40:04,VALID,1000.13,VALID,0,VALID,93.3179,VALID,0,VALID,23.3695,VALID,64,VALID,0.619141,
2010-06-02, 01:41:04,VALID,1000.14,VALID,0,VALID,93.2874,VALID,0,VALID,23.4085,VALID,64,VALID,0.648438,
2010-06-02, 01:42:04,VALID,1000.16,VALID,0,VALID,93.234,VALID,0,VALID,23.428,VALID,63,VALID,0.764063,
2010-06-02, 01:43:04,VALID,1000.14,VALID,0,VALID,92.9669,VALID,0,VALID,23.4085,VALID,60,VALID,0.51875,
2010-06-02, 01:44:04,VALID,1000.15,VALID,0,VALID,92.5931,VALID,0,VALID,23.3695,VALID,60,VALID,0.474219,
2010-06-02, 01:45:04,VALID,1000.15,VALID,0,VALID,92.6388,VALID,0,VALID,23.389,VALID,60,VALID,0.551562,
2010-06-02, 01:46:04,VALID,1000.17,VALID,0,VALID,92.6846,VALID,0,VALID,23.4085,VALID,60,VALID,0.578516,
2010-06-02, 01:47:04,VALID,1000.14,VALID,0,VALID,92.6312,VALID,0,VALID,23.428,VALID,60,VALID,0.526172,
2010-06-02, 01:48:04,VALID,1000.16,VALID,0,VALID,92.7075,VALID,0,VALID,23.4475,VALID,74,VALID,0.742969,
2010-06-02, 01:49:04,VALID,1000.19,VALID,0,VALID,92.6083,VALID,0,VALID,23.4671,VALID,74,VALID,0.776563,
2010-06-02, 01:50:04,VALID,1000.24,VALID,0,VALID,92.5931,VALID,0,VALID,23.4866,VALID,74,VALID,0.852344,
2010-06-02, 01:51:04,VALID,1000.28,VALID,0,VALID,92.4557,VALID,0,VALID,23.5256,VALID,74,VALID,0.727734,
2010-06-02, 01:52:04,VALID,1000.29,VALID,0,VALID,92.3184,VALID,0,VALID,23.5061,VALID,74,VALID,0.521484,
2010-06-02, 01:53:04,VALID,1000.32,VALID,0,VALID,92.1124,VALID,0,VALID,23.5061,VALID,74,VALID,0.371875,
2010-06-02, 01:54:04,VALID,1000.34,VALID,0,VALID,91.9217,VALID,0,VALID,23.4866,VALID,78,VALID,0.463672,
2010-06-02, 01:55:04,VALID,1000.33,VALID,0,VALID,91.9217,VALID,0,VALID,23.4653,VALID,144,VALID,0.894531,
2010-06-02, 01:56:04,VALID,1000.32,VALID,0,VALID,92.0819,VALID,0,VALID,23.4866,VALID,145,VALID,0.696484,
2010-06-02, 01:57:04,VALID,1000.29,VALID,0,VALID,92.1582,VALID,0,VALID,23.4671,VALID,142,VALID,0.623047,
2010-06-02, 01:58:04,VALID,1000.29,VALID,0,VALID,92.2268,VALID,0,VALID,23.4866,VALID,121,VALID,1.10664,
2010-06-02, 01:59:04,VALID,1000.33,VALID,0,VALID,92.1277,VALID,0,VALID,23.4653,VALID,104,VALID,0.832031,
2010-06-02, 02:00:04,VALID,1000.3,VALID,0,VALID,92.1429,VALID,0,VALID,23.4671,VALID,91,VALID,0.762109,
2010-06-02, 02:01:04,VALID,1000.29,VALID,0,VALID,92.1124,VALID,0,VALID,23.4671,VALID,84,VALID,0.853125,
2010-06-02, 02:02:04,VALID,1000.3,VALID,0,VALID,92.1048,VALID,0,VALID,23.4671,VALID,98,VALID,0.677734,
2010-06-02, 02:03:04,VALID,1000.28,VALID,0,VALID,92.0819,VALID,0,VALID,23.4866,VALID,90,VALID,0.8875,
2010-06-02, 02:04:04,VALID,1000.31,VALID,0,VALID,92.0666,VALID,0,VALID,23.4866,VALID,87,VALID,0.773047,
2010-06-02, 02:05:04,VALID,1000.34,VALID,0,VALID,92.0361,VALID,0,VALID,23.4671,VALID,81,VALID,0.76875,
2010-06-02, 02:06:04,VALID,1000.34,VALID,0,VALID,91.9903,VALID,0,VALID,23.4671,VALID,64,VALID,0.633594,
2010-06-02, 02:07:04,VALID,1000.37,VALID,0,VALID,91.8835,VALID,0,VALID,23.4067,VALID,64,VALID,0.548047,
2010-06-02, 02:08:04,VALID,1000.36,VALID,0,VALID,91.9522,VALID,0,VALID,23.4085,VALID,64,VALID,0.792969,
2010-06-02, 02:09:04,VALID,1000.37,VALID,0,VALID,91.9064,VALID,0,VALID,23.389,VALID,50,VALID,0.742969,
2010-06-02, 02:10:04,VALID,1000.38,VALID,0,VALID,91.8454,VALID,0,VALID,23.3482,VALID,52,VALID,0.725,
2010-06-02, 02:11:04,VALID,1000.41,VALID,0,VALID,91.9217,VALID,0,VALID,23.35,VALID,56,VALID,0.904688,
2010-06-02, 02:12:04,VALID,1000.39,VALID,0,VALID,91.9674,VALID,0,VALID,23.3305,VALID,59,VALID,0.659375,
2010-06-02, 02:13:04,VALID,1000.41,VALID,0,VALID,91.9445,VALID,0,VALID,23.3305,VALID,56,VALID,0.737891,
2010-06-02, 02:14:04,VALID,1000.41,VALID,0,VALID,91.9903,VALID,0,VALID,23.3305,VALID,45,VALID,0.817578,
2010-06-02, 02:15:04,VALID,1000.41,VALID,0,VALID,92.0056,VALID,0,VALID,23.311,VALID,36,VALID,0.780078,
2010-06-02, 02:16:04,VALID,1000.4,VALID,0,VALID,91.9751,VALID,0,VALID,23.3305,VALID,37,VALID,0.569141,
2010-06-02, 02:17:04,VALID,1000.45,VALID,0,VALID,91.8988,VALID,0,VALID,23.311,VALID,37,VALID,0.694141,
2010-06-02, 02:18:04,VALID,1000.42,VALID,0,VALID,92.059,VALID,0,VALID,23.311,VALID,36,VALID,0.675781,
2010-06-02, 02:19:04,VALID,1000.46,VALID,0,VALID,92.0895,VALID,0,VALID,23.311,VALID,36,VALID,0.586719,
2010-06-02, 02:20:04,VALID,1000.46,VALID,0,VALID,92.059,VALID,0,VALID,23.2915,VALID,40,VALID,0.637891,
2010-06-02, 02:21:04,VALID,1000.41,VALID,0,VALID,92.1734,VALID,0,VALID,23.2915,VALID,40,VALID,0.991797,
2010-06-02, 02:22:04,VALID,1000.38,VALID,0,VALID,92.3184,VALID,0,VALID,23.2915,VALID,38,VALID,0.901563,
2010-06-02, 02:23:04,VALID,1000.37,VALID,0,VALID,92.2955,VALID,0,VALID,23.311,VALID,38,VALID,0.909375,
2010-06-02, 02:24:04,VALID,1000.34,VALID,0,VALID,92.3642,VALID,0,VALID,23.2897,VALID,35,VALID,0.983203,
2010-06-02, 02:25:04,VALID,1000.33,VALID,0,VALID,92.3031,VALID,0,VALID,23.2897,VALID,35,VALID,1.08242,
2010-06-02, 02:26:04,VALID,1000.28,VALID,0,VALID,92.3108,VALID,0,VALID,23.2915,VALID,35,VALID,0.992969,
2010-06-02, 02:27:04,VALID,1000.25,VALID,0,VALID,92.3108,VALID,0,VALID,23.2915,VALID,35,VALID,1.09219,
2010-06-02, 02:28:04,VALID,1000.2,VALID,0,VALID,92.3794,VALID,0,VALID,23.2719,VALID,36,VALID,1.08438,
2010-06-02, 02:29:04,VALID,1000.21,VALID,0,VALID,92.5015,VALID,0,VALID,23.2915,VALID,36,VALID,0.998438,
2010-06-02, 02:30:04,VALID,1000.21,VALID,0,VALID,92.5778,VALID,0,VALID,23.2719,VALID,37,VALID,1.04727,
2010-06-02, 02:31:04,VALID,1000.2,VALID,0,VALID,92.6312,VALID,0,VALID,23.2915,VALID,37,VALID,0.891016,
2010-06-02, 02:32:04,VALID,1000.22,VALID,0,VALID,92.6694,VALID,0,VALID,23.2915,VALID,37,VALID,0.914063,
2010-06-02, 02:33:04,VALID,1000.24,VALID,0,VALID,92.7228,VALID,0,VALID,23.2915,VALID,37,VALID,0.833594,
2010-06-02, 02:34:04,VALID,1000.24,VALID,0,VALID,92.7609,VALID,0,VALID,23.2915,VALID,38,VALID,0.674609,
2010-06-02, 02:35:04,VALID,1000.26,VALID,0,VALID,92.7762,VALID,0,VALID,23.311,VALID,38,VALID,0.15,
2010-06-02, 02:36:04,VALID,1000.22,VALID,0,VALID,92.7762,VALID,0,VALID,23.2915,VALID,38,VALID,0,
2010-06-02, 02:37:04,VALID,1000.25,VALID,0,VALID,92.7533,VALID,0,VALID,23.311,VALID,38,VALID,0,
2010-06-02, 02:38:04,VALID,1000.24,VALID,0,VALID,92.738,VALID,0,VALID,23.2719,VALID,38,VALID,0,
2010-06-02, 02:39:04,VALID,1000.22,VALID,0,VALID,92.7609,VALID,0,VALID,23.2915,VALID,38,VALID,0,
2010-06-02, 02:40:04,VALID,1000.23,VALID,0,VALID,92.8067,VALID,0,VALID,23.2915,VALID,38,VALID,0,
2010-06-02, 02:41:04,VALID,1000.22,VALID,0,VALID,92.8372,VALID,0,VALID,23.2915,VALID,38,VALID,0,
2010-06-02, 02:42:04,VALID,1000.21,VALID,0,VALID,92.9135,VALID,0,VALID,23.2702,VALID,38,VALID,0.178906,
2010-06-02, 02:43:04,VALID,1000.2,VALID,0,VALID,92.9364,VALID,0,VALID,23.2915,VALID,38,VALID,0,
2010-06-02, 02:44:04,VALID,1000.2,VALID,0,VALID,92.944,VALID,0,VALID,23.311,VALID,38,VALID,0.261328,
2010-06-02, 02:45:04,VALID,1000.23,VALID,0,VALID,92.9364,VALID,0,VALID,23.311,VALID,38,VALID,0.417578,
2010-06-02, 02:46:04,VALID,1000.22,VALID,0,VALID,92.9288,VALID,0,VALID,23.311,VALID,38,VALID,0.588281,
2010-06-02, 02:47:04,VALID,1000.23,VALID,0,VALID,92.9135,VALID,0,VALID,23.311,VALID,38,VALID,0.709375,
2010-06-02, 02:48:04,VALID,1000.23,VALID,0,VALID,92.9364,VALID,0,VALID,23.311,VALID,42,VALID,0.954297,
2010-06-02, 02:49:04,VALID,1000.24,VALID,0,VALID,92.9211,VALID,0,VALID,23.311,VALID,46,VALID,1.05742,
2010-06-02, 02:50:04,VALID,1000.24,VALID,0,VALID,92.9593,VALID,0,VALID,23.3305,VALID,46,VALID,0.945703,
2010-06-02, 02:51:04,VALID,1000.24,VALID,0,VALID,92.9898,VALID,0,VALID,23.35,VALID,46,VALID,0.847656,
2010-06-02, 02:52:04,VALID,1000.25,VALID,0,VALID,92.9517,VALID,0,VALID,23.3695,VALID,46,VALID,0.744531,
2010-06-02, 02:53:04,VALID,1000.25,VALID,0,VALID,92.9593,VALID,0,VALID,23.35,VALID,46,VALID,0.657031,
2010-06-02, 02:54:04,VALID,1000.24,VALID,0,VALID,92.9517,VALID,0,VALID,23.35,VALID,46,VALID,0.548828,
2010-06-02, 02:55:04,VALID,1000.21,VALID,0,VALID,92.9745,VALID,0,VALID,23.35,VALID,46,VALID,0.410547,
2010-06-02, 02:56:04,VALID,1000.22,VALID,0,VALID,92.944,VALID,0,VALID,23.35,VALID,46,VALID,0.326562,
2010-06-02, 02:57:04,VALID,1000.22,VALID,0,VALID,92.9669,VALID,0,VALID,23.3305,VALID,46,VALID,0.382422,
2010-06-02, 02:58:04,VALID,1000.19,VALID,0,VALID,92.9669,VALID,0,VALID,23.3305,VALID,46,VALID,0.480469,
2010-06-02, 02:59:04,VALID,1000.21,VALID,0,VALID,92.9593,VALID,0,VALID,23.3305,VALID,46,VALID,0.475781,
2010-06-02, 03:00:04,VALID,1000.21,VALID,0,VALID,92.944,VALID,0,VALID,23.311,VALID,46,VALID,0.531641,
2010-06-02, 03:01:04,VALID,1000.25,VALID,0,VALID,93.0203,VALID,0,VALID,23.311,VALID,46,VALID,0.447656,
2010-06-02, 03:02:04,VALID,1000.23,VALID,0,VALID,93.0203,VALID,0,VALID,23.3305,VALID,46,VALID,0.31875,
2010-06-02, 03:03:04,VALID,1000.27,VALID,0,VALID,93.028,VALID,0,VALID,23.3305,VALID,46,VALID,0.159375,
2010-06-02, 03:04:04,VALID,1000.27,VALID,0,VALID,93.0356,VALID,0,VALID,23.35,VALID,46,VALID,0,
2010-06-02, 03:05:04,VALID,1000.25,VALID,0,VALID,93.0432,VALID,0,VALID,23.3305,VALID,46,VALID,0,
2010-06-02, 03:06:04,VALID,1000.28,VALID,0,VALID,93.0356,VALID,0,VALID,23.3305,VALID,46,VALID,0,
2010-06-02, 03:07:04,VALID,1000.3,VALID,0,VALID,93.0432,VALID,0,VALID,23.3305,VALID,46,VALID,0,
2010-06-02, 03:08:04,VALID,1000.3,VALID,0,VALID,93.0508,VALID,0,VALID,23.3305,VALID,46,VALID,0.251953,
2010-06-02, 03:09:04,VALID,1000.32,VALID,0,VALID,93.0585,VALID,0,VALID,23.35,VALID,46,VALID,0.308594,
2010-06-02, 03:10:04,VALID,1000.35,VALID,0,VALID,93.0661,VALID,0,VALID,23.389,VALID,46,VALID,0.241016,
2010-06-02, 03:11:04,VALID,1000.35,VALID,0,VALID,93.0356,VALID,0,VALID,23.389,VALID,46,VALID,0.165234,
2010-06-02, 03:12:04,VALID,1000.36,VALID,0,VALID,92.9898,VALID,0,VALID,23.4085,VALID,46,VALID,0.129688,
2010-06-02, 03:13:04,VALID,1000.32,VALID,0,VALID,92.9593,VALID,0,VALID,23.428,VALID,46,VALID,0.0273438,
2010-06-02, 03:14:04,VALID,1000.32,VALID,0,VALID,92.9211,VALID,0,VALID,23.4475,VALID,46,VALID,0,
2010-06-02, 03:15:04,VALID,1000.33,VALID,0,VALID,92.9135,VALID,0,VALID,23.4475,VALID,46,VALID,0,
2010-06-02, 03:16:04,VALID,1000.34,VALID,0,VALID,92.8754,VALID,0,VALID,23.4475,VALID,46,VALID,0,
2010-06-02, 03:17:04,VALID,1000.35,VALID,0,VALID,92.822,VALID,0,VALID,23.428,VALID,46,VALID,0,
2010-06-02, 03:18:04,VALID,1000.36,VALID,0,VALID,92.8525,VALID,0,VALID,23.4475,VALID,48,VALID,0.205078,
2010-06-02, 03:19:04,VALID,1000.38,VALID,0,VALID,92.8448,VALID,0,VALID,23.4671,VALID,77,VALID,0.614062,
2010-06-02, 03:20:04,VALID,1000.37,VALID,0,VALID,92.7304,VALID,0,VALID,23.5061,VALID,77,VALID,0.860547,
2010-06-02, 03:21:04,VALID,1000.36,VALID,0,VALID,92.5702,VALID,0,VALID,23.5256,VALID,72,VALID,0.911328,
2010-06-02, 03:22:04,VALID,1000.33,VALID,0,VALID,92.4405,VALID,0,VALID,23.5841,VALID,72,VALID,0.870703,
2010-06-02, 03:23:04,VALID,1000.31,VALID,0,VALID,92.3108,VALID,0,VALID,23.625,VALID,73,VALID,0.957422,
2010-06-02, 03:24:04,VALID,1000.3,VALID,0,VALID,92.1506,VALID,0,VALID,23.6232,VALID,73,VALID,0.66875,
2010-06-02, 03:25:04,VALID,1000.3,VALID,0,VALID,92.0209,VALID,0,VALID,23.6427,VALID,74,VALID,0.86875,
2010-06-02, 03:26:04,VALID,1000.31,VALID,0,VALID,91.8988,VALID,0,VALID,23.6622,VALID,75,VALID,0.906641,
2010-06-02, 03:27:04,VALID,1000.32,VALID,0,VALID,91.6546,VALID,0,VALID,23.6622,VALID,84,VALID,1.11719,
2010-06-02, 03:28:04,VALID,1000.33,VALID,0,VALID,91.3494,VALID,0,VALID,23.6817,VALID,92,VALID,0.894141,
2010-06-02, 03:29:04,VALID,1000.31,VALID,0,VALID,91.1129,VALID,0,VALID,23.7207,VALID,85,VALID,1.03164,
2010-06-02, 03:30:04,VALID,1000.34,VALID,0,VALID,90.9146,VALID,0,VALID,23.7207,VALID,85,VALID,0.775391,
2010-06-02, 03:31:05,VALID,1000.3,VALID,0,VALID,90.7696,VALID,0,VALID,23.7597,VALID,85,VALID,0.664063,
2010-06-02, 03:32:05,VALID,1000.28,VALID,0,VALID,90.6246,VALID,0,VALID,23.7597,VALID,85,VALID,0.535937,
2010-06-02, 03:33:05,VALID,1000.22,VALID,0,VALID,90.5026,VALID,0,VALID,23.7597,VALID,85,VALID,0.305859,
2010-06-02, 03:34:05,VALID,1000.19,VALID,0,VALID,90.4415,VALID,0,VALID,23.7793,VALID,85,VALID,0.291797,
2010-06-02, 03:35:05,VALID,1000.19,VALID,0,VALID,90.3576,VALID,0,VALID,23.7597,VALID,85,VALID,0,
2010-06-02, 03:36:05,VALID,1000.17,VALID,0,VALID,90.3271,VALID,0,VALID,23.7597,VALID,85,VALID,0,
2010-06-02, 03:37:05,VALID,1000.17,VALID,0,VALID,90.3423,VALID,0,VALID,23.7597,VALID,85,VALID,0,
2010-06-02, 03:38:05,VALID,1000.15,VALID,0,VALID,90.5483,VALID,0,VALID,23.7597,VALID,85,VALID,0.142188,
2010-06-02, 03:39:05,VALID,1000.19,VALID,0,VALID,90.6246,VALID,0,VALID,23.7384,VALID,85,VALID,0,
2010-06-02, 03:40:05,VALID,1000.2,VALID,0,VALID,90.678,VALID,0,VALID,23.7189,VALID,85,VALID,0,
2010-06-02, 03:41:05,VALID,1000.21,VALID,0,VALID,90.7391,VALID,0,VALID,23.7402,VALID,85,VALID,0,
2010-06-02, 03:42:05,VALID,1000.18,VALID,0,VALID,90.7849,VALID,0,VALID,23.7012,VALID,85,VALID,0,
2010-06-02, 03:43:05,VALID,1000.19,VALID,0,VALID,90.7925,VALID,0,VALID,23.6817,VALID,85,VALID,0,
2010-06-02, 03:44:05,VALID,1000.19,VALID,0,VALID,90.7849,VALID,0,VALID,23.6817,VALID,85,VALID,0,
2010-06-02, 03:45:05,VALID,1000.17,VALID,0,VALID,90.8306,VALID,0,VALID,23.6817,VALID,85,VALID,0,
2010-06-02, 03:46:05,VALID,1000.16,VALID,0,VALID,90.8764,VALID,0,VALID,23.6622,VALID,85,VALID,0,
2010-06-02, 03:47:05,VALID,1000.12,VALID,0,VALID,90.9603,VALID,0,VALID,23.6622,VALID,85,VALID,0,
2010-06-02, 03:48:05,VALID,1000.13,VALID,0,VALID,91.0977,VALID,0,VALID,23.6817,VALID,85,VALID,0,
2010-06-02, 03:49:05,VALID,1000.12,VALID,0,VALID,91.2579,VALID,0,VALID,23.6817,VALID,85,VALID,0,
2010-06-02, 03:50:05,VALID,1000.09,VALID,0,VALID,91.4181,VALID,0,VALID,23.6817,VALID,85,VALID,0,